Погода в Туранджи

Новая Зеландия     38°59′22″S   175°48′39″E
темп.,
°C
ветер,
м/с
пор.,
м/с
влажн.,
%
обл.,
%
осадки,
мм/ч
давл.,
гПа
погр.,
м
12 августа, пт
пт1200:00−3ю23977 0.0 102348
03:00−4ю23976 0.0 102355
06:00−4ю23965 0.0 102353
09:00+2ю13855 0.0 1022161
12:00+7зюз12636 0.0 10201130
15:00+8з135861 0.0 10191122
18:00+1ю22942 0.1 102235
21:00−2ю23975 0.0 102445
13 августа, сб
сб1300:00−3ююз22966 0.0 102540
03:00−3ююз22915 0.0 102637
06:00−4ю228912 0.0 102635
09:00+3ююз115922 0.0 1026157
12:00+9ссз12435 0.0 10241039
15:00+9сз23510 0.0 1022878
18:00+2ююз21900 0.0 102618
21:000ю22900 0.0 102835
14 августа, вс
вс1400:000ю11810 0.0 103018
03:00−1ю11732 0.0 103015
06:00−1ю11690 0.0 103014
09:00+4всв01550 0.0 1030148
12:00+10с12490 0.0 1028661
15:00+11ссз12430 0.0 1025937
18:00+3юз11820 0.0 102811
21:00+1юз11947 0.0 103024
15 августа, пн
пн1500:00+1ююз119915 0.0 103019
03:00−1ююз11985 0.0 103118
06:00−1ю119686 0.0 103120
09:00+3ссв017899 0.0 1031167
12:00+8с2361100 0.0 1029705
15:00+10ссв2358100 0.0 1027910
18:00+6в1180100 0.0 102818
21:00+6всв1186100 0.0 102944
16 августа, вт
вт1600:00+5в1197100 0.0 103048
03:00+6всв1398100 0.0 1029133
06:00+6всв15100100 0.0 1027349
09:00+7св1799100 0.1 1027522
12:00+9ссв21097100 0.2 10261049
15:00+10ссв21098100 0.6 10241037
18:00+10ссв21099100 2.0 1023972
21:00+10с21299100 0.3 10251182